Weather History for TNCB - October, 2013

Change the Weather History Date:

Sunday, October 27, 2013

  Actual Average (WUND) Record (WUND)
Temperature  
Mean Temperature 86 °F -  
Max Temperature 89 °F 86 °F - (-1)
Min Temperature 82 °F 79 °F - (-1)
Cooling Degree Days 20    
Growing Degree Days 36 (Base 50)    
Moisture  
Dew Point 78 °F    
Average Humidity 79    
Maximum Humidity 89    
Minimum Humidity 66    
Precipitation  
Precipitation 0.00 in - - ()
Sea Level Pressure  
Sea Level Pressure 29.85 in    
Wind  
Wind Speed 15 mph ()    
Max Wind Speed 22 mph    
Max Gust Speed -    
Visibility 6.2 miles    
Events      
Averages and records for this station are not official NWS values.
T = Trace of Precipitation, MM = Missing Value Source: Averaged Metar Reports

Daily Weather History Graph

Daily Weather History Graph

Search for Another Location

Airport or City:

Trip Planner

Search our weather history database for the weather conditions in past years. The results will help you decide how hot, cold, wet, or windy it might be!

Date:

Astronomy

Oct. 27, 2013 Rise Set
Actual Time 6:24 AM AST 6:08 PM AST
Civil Twilight 6:03 AM AST 6:30 PM AST
Nautical Twilight 5:38 AM AST 6:55 PM AST
Astronomical Twilight 5:13 AM AST 7:20 PM AST
Moon 12:27 AM AST (10/27) 1:12 PM AST (10/27)
Length of Visible Light 12h 27m
Length of Day
11h 44m
Last Quarter, 44% of the Moon is Illuminated
Oct 27
Last Quarter
Nov 3
New
Nov 10
First Quarter
Nov 17
Full
Nov 25
Last Quarter

Hourly Weather History & Observations

Time (AST) Temp. Heat Index Dew Point Humidity Pressure Visibility Wind Dir Wind Speed Gust Speed Precip Events Conditions
12:55 AM 82.4 °F 92.4 °F 78.8 °F 89% 29.86 in - East 17.3 mph - N/A   Unknown
1:55 AM 82.4 °F 92.4 °F 78.8 °F 89% 29.83 in - East 15.0 mph - N/A   Unknown
2:55 AM 82.4 °F 92.4 °F 78.8 °F 89% 29.83 in - East 15.0 mph - N/A   Unknown
3:55 AM 82.4 °F 92.4 °F 78.8 °F 89% 29.83 in - East 13.8 mph - N/A   Unknown
4:55 AM 82.4 °F 92.4 °F 78.8 °F 89% 29.80 in - East 13.8 mph - N/A   Unknown
5:55 AM 82.4 °F 92.4 °F 78.8 °F 89% 29.83 in - East 13.8 mph - N/A   Unknown
7:00 AM 82.4 °F 92.4 °F 78.8 °F 89% 29.83 in - East 15.0 mph - N/A   Unknown
8:00 AM 84.2 °F 94.1 °F 77.0 °F 79% 29.86 in - East 17.3 mph - N/A   Unknown
9:00 AM 86.0 °F 96.9 °F 77.0 °F 74% 29.89 in - East 19.6 mph - N/A   Unknown
9:55 AM 87.8 °F 99.7 °F 77.0 °F 70% 29.92 in 6.2 mi East 19.6 mph - N/A   Scattered Clouds
10:55 AM 89.6 °F 102.2 °F 77.0 °F 66% 29.92 in 6.2 mi East 19.6 mph - N/A   Scattered Clouds
11:00 AM 89.6 °F 102.2 °F 77.0 °F 66% 29.92 in 6.2 mi East 19.6 mph - N/A   Scattered Clouds
12:00 PM 89.6 °F 102.2 °F 77.0 °F 66% 29.89 in - ESE 18.4 mph - N/A   Unknown
1:00 PM 89.6 °F 104.7 °F 78.8 °F 70% 29.86 in - East 20.7 mph - N/A   Unknown
2:00 PM 87.8 °F 99.7 °F 77.0 °F 70% 29.83 in 6.2 mi East 19.6 mph - N/A   Scattered Clouds
3:00 PM 89.6 °F 102.2 °F 77.0 °F 66% 29.83 in 6.2 mi East 19.6 mph - N/A   Scattered Clouds
4:00 PM 86.0 °F 96.9 °F 77.0 °F 74% 29.80 in 6.2 mi East 19.6 mph - N/A   Partly Cloudy
5:00 PM 86.0 °F 96.9 °F 77.0 °F 74% 29.80 in 6.2 mi East 21.9 mph - N/A   Scattered Clouds
6:00 PM 84.2 °F 94.1 °F 77.0 °F 79% 29.80 in 6.2 mi East 19.6 mph - N/A   Scattered Clouds
7:00 PM 84.2 °F 94.1 °F 77.0 °F 79% 29.80 in 6.2 mi East 17.3 mph - N/A   Partly Cloudy
8:00 PM 84.2 °F 94.1 °F 77.0 °F 79% 29.83 in 6.2 mi East 15.0 mph - N/A   Scattered Clouds
9:00 PM 82.4 °F 92.4 °F 78.8 °F 89% 29.86 in - ENE 13.8 mph - N/A   Unknown
10:00 PM 82.4 °F 90.9 °F 77.0 °F 84% 29.89 in - ENE 13.8 mph - N/A   Unknown